TimeEST,TemperatureF,Dew PointF,Humidity,Sea Level PressureIn,VisibilityMPH,Wind Direction,Wind SpeedMPH,Gust SpeedMPH,PrecipitationIn,Events,Conditions,WindDirDegrees,DateUTC
12:54 AM,37.0,28.9,73,30.27,10.0,Calm,Calm,-,N/A,,Clear,0,2011-12-24 05:54:00
1:54 AM,33.1,28.9,85,30.27,10.0,NW,3.5,-,N/A,,Clear,310,2011-12-24 06:54:00
2:54 AM,37.0,30.0,76,30.28,10.0,Calm,Calm,-,N/A,,Mostly Cloudy,0,2011-12-24 07:54:00
3:54 AM,33.1,28.9,85,30.29,10.0,Calm,Calm,-,N/A,,Scattered Clouds,0,2011-12-24 08:54:00
4:54 AM,30.9,28.9,92,30.30,10.0,Calm,Calm,-,N/A,,Clear,0,2011-12-24 09:54:00
5:54 AM,36.0,30.9,82,30.34,10.0,Calm,Calm,-,N/A,,Mostly Cloudy,0,2011-12-24 10:54:00
6:54 AM,35.1,28.0,76,30.38,10.0,South,3.5,-,N/A,,Scattered Clouds,170,2011-12-24 11:54:00
7:54 AM,39.9,26.1,58,30.40,10.0,North,3.5,-,N/A,,Clear,360,2011-12-24 12:54:00
8:54 AM,42.1,27.0,55,30.44,10.0,Variable,3.5,-,N/A,,Clear,0,2011-12-24 13:54:00
9:54 AM,44.1,25.0,47,30.45,10.0,North,10.4,17.3,N/A,,Clear,360,2011-12-24 14:54:00
10:54 AM,44.1,24.1,45,30.46,10.0,Variable,5.8,-,N/A,,Clear,0,2011-12-24 15:54:00
11:54 AM,45.0,21.9,40,30.44,10.0,Calm,Calm,-,N/A,,Clear,0,2011-12-24 16:54:00
12:54 PM,46.0,21.9,39,30.42,10.0,West,3.5,-,N/A,,Clear,260,2011-12-24 17:54:00
1:54 PM,46.0,21.0,37,30.41,10.0,Variable,5.8,-,N/A,,Clear,0,2011-12-24 18:54:00
2:54 PM,46.0,21.9,39,30.40,10.0,West,4.6,-,N/A,,Clear,270,2011-12-24 19:54:00
3:54 PM,45.0,23.0,42,30.40,10.0,Calm,Calm,-,N/A,,Clear,0,2011-12-24 20:54:00
4:54 PM,41.0,26.1,55,30.41,10.0,Calm,Calm,-,N/A,,Clear,0,2011-12-24 21:54:00
5:54 PM,36.0,25.0,64,30.43,10.0,Calm,Calm,-,N/A,,Clear,0,2011-12-24 22:54:00
6:54 PM,34.0,24.1,67,30.44,10.0,Calm,Calm,-,N/A,,Clear,0,2011-12-24 23:54:00
7:54 PM,33.1,25.0,72,30.44,10.0,Calm,Calm,-,N/A,,Clear,0,2011-12-25 00:54:00
8:54 PM,30.9,25.0,79,30.44,10.0,Calm,Calm,-,N/A,,Clear,0,2011-12-25 01:54:00
9:54 PM,30.9,24.1,76,30.43,10.0,Calm,Calm,-,N/A,,Clear,0,2011-12-25 02:54:00
10:54 PM,28.9,23.0,78,30.42,10.0,Calm,Calm,-,N/A,,Clear,0,2011-12-25 03:54:00
11:54 PM,28.9,24.1,82,30.42,10.0,Calm,Calm,-,N/A,,Clear,0,2011-12-25 04:54:00